Darstellungsparameter: Aktuell verwendete Einstellungen:
Skalierung der Graphiken ... ?
xyx+y,   Skalierungsfaktor:      Skalierung: Modus: x, Faktor: 1
Darstellungszeitraum ... ?
Vom - - bis: - -   Zeitraum: 14.01.2022 - 14.01.2022
Min/Max/Avg-Anzeige ... ?
Zeige MMA aktuell
Zeige MMA Monat
Zeige MMA alles
Zeige --A aktuell
Zeige --A Monat
Zeige --A alles
Keine MMA-Anzeige
MMA:
Average (ber die Originaldaten)
MMA-Basis: 14.01.2022 - 14.01.2022
Quicknavigation für Darstellung... ?
Tage:      1T, 2T, 3T, 5T -1T -2T -3T -5T +1T +2T +3T +5T
Wochen: 1W, 2W, 3W -1W -2W -3W +1W +2W +3W
Monate: 1M, 3M, 6M -1M -3M -6M +1M +3M +6M
Jahre:    1J, 3J, 5J, 10J -1J -3J -5J -10J +1J +3J +5J +10J
Nutze für die Darstellung ... ?
Originaldaten oder Mittelwerte auf ...
Stundenbasis Tagesbasis Wochenbasis
Monatsbasis Jahresbasis      Datenbasis: Original-Daten
Darstellen als:
Statistik (Auto) Statistik J:M      Darstellung:
Zur Graphik,    zurück zur Übersicht aller Sensoren.
 
Tabellarische Datenbersicht: ?
 
Sensor: Nr:Datum:Temp:Abs-Feuchte:Windchill:Wind:
Aussen-T/F 1 14-01-2022 00:00:00 -0.9 C 4.37 g/m*3 -0.9 C 0 km/h
2 14-01-2022 00:05:00 -0.8 C 4.4 g/m*3 -0.8 C 0 km/h
3 14-01-2022 00:10:00 -0.8 C 4.4 g/m*3 -0.8 C 0 km/h
4 14-01-2022 00:15:00 -0.8 C 4.4 g/m*3 -0.8 C 0 km/h
5 14-01-2022 00:20:00 -0.8 C 4.4 g/m*3 -0.8 C 0 km/h
6 14-01-2022 00:25:00 -0.8 C 4.4 g/m*3 -0.8 C 0 km/h
7 14-01-2022 00:30:00 -0.8 C 4.4 g/m*3 -0.8 C 0 km/h
8 14-01-2022 00:35:00 -0.7 C 4.43 g/m*3 -0.7 C 0 km/h
9 14-01-2022 00:40:00 -0.7 C 4.43 g/m*3 -0.7 C 0 km/h
10 14-01-2022 00:45:00 -0.7 C 4.43 g/m*3 -0.7 C 0 km/h
11 14-01-2022 00:50:00 -0.7 C 4.43 g/m*3 -0.7 C 0 km/h
12 14-01-2022 00:55:00 -0.7 C 4.43 g/m*3 -0.7 C 0 km/h
13 14-01-2022 01:00:00 -0.7 C 4.43 g/m*3 -0.7 C 0 km/h
14 14-01-2022 01:05:00 -0.7 C 4.43 g/m*3 -0.7 C 0 km/h
15 14-01-2022 01:10:00 -0.7 C 4.43 g/m*3 -0.7 C 0 km/h
16 14-01-2022 01:15:00 -0.7 C 4.43 g/m*3 -0.7 C 0 km/h
17 14-01-2022 01:20:00 -0.7 C 4.43 g/m*3 -0.7 C 0 km/h
18 14-01-2022 01:25:00 -0.7 C 4.43 g/m*3 -0.7 C 0 km/h
19 14-01-2022 01:30:00 -0.7 C 4.43 g/m*3 -0.7 C 0 km/h
20 14-01-2022 01:35:00 -0.6 C 4.46 g/m*3 -0.6 C 0 km/h
21 14-01-2022 01:40:00 -0.6 C 4.46 g/m*3 -0.6 C 0 km/h
22 14-01-2022 01:45:00 -0.6 C 4.46 g/m*3 -0.6 C 0 km/h
23 14-01-2022 01:50:00 -0.6 C 4.46 g/m*3 -0.6 C 0 km/h
24 14-01-2022 01:55:00 -0.6 C 4.46 g/m*3 -0.6 C 0 km/h
25 14-01-2022 02:00:00 -0.6 C 4.46 g/m*3 -0.6 C 1.6 km/h
Sensor: Nr:Datum:Temp:Abs-Feuchte:Windchill:Wind:
Aussen-T/F 26 14-01-2022 02:05:00 -0.6 C 4.46 g/m*3 -0.6 C 0 km/h
27 14-01-2022 02:10:00 -0.6 C 4.46 g/m*3 -0.6 C 0 km/h
28 14-01-2022 02:15:00 -0.5 C 4.49 g/m*3 -0.5 C 0 km/h
29 14-01-2022 02:20:00 -0.4 C 4.52 g/m*3 -0.4 C 0 km/h
30 14-01-2022 02:25:00 -0.4 C 4.52 g/m*3 -0.4 C 0 km/h
31 14-01-2022 02:30:00 -0.4 C 4.52 g/m*3 -0.4 C 0 km/h
32 14-01-2022 02:35:00 -0.4 C 4.52 g/m*3 -0.4 C 0 km/h
33 14-01-2022 02:40:00 -0.4 C 4.52 g/m*3 -0.4 C 0 km/h
34 14-01-2022 02:45:00 -0.4 C 4.52 g/m*3 -0.4 C 0 km/h
35 14-01-2022 02:50:00 -0.4 C 4.52 g/m*3 -0.4 C 0 km/h
36 14-01-2022 02:55:00 -0.4 C 4.52 g/m*3 -0.4 C 0 km/h
37 14-01-2022 03:00:00 -0.4 C 4.52 g/m*3 -0.4 C 1.6 km/h
38 14-01-2022 03:05:00 -0.4 C 4.52 g/m*3 -0.4 C 0 km/h
39 14-01-2022 03:10:00 -0.4 C 4.52 g/m*3 -0.4 C 0 km/h
40 14-01-2022 03:15:00 -0.4 C 4.52 g/m*3 -0.4 C 0 km/h
41 14-01-2022 03:20:00 -0.4 C 4.52 g/m*3 -0.4 C 1.6 km/h
42 14-01-2022 03:25:00 -0.4 C 4.52 g/m*3 -0.4 C 1.6 km/h
43 14-01-2022 03:30:00 -0.4 C 4.52 g/m*3 -0.4 C 1.6 km/h
44 14-01-2022 03:35:00 -0.4 C 4.52 g/m*3 -0.4 C 1.6 km/h
45 14-01-2022 03:40:00 -0.5 C 4.49 g/m*3 -0.5 C 3.2 km/h
46 14-01-2022 03:45:00 -0.6 C 4.46 g/m*3 -0.6 C 3.2 km/h
47 14-01-2022 03:50:00 -0.6 C 4.46 g/m*3 -0.6 C 3.2 km/h
48 14-01-2022 03:55:00 -0.6 C 4.46 g/m*3 -0.6 C 1.6 km/h
49 14-01-2022 04:00:00 -0.6 C 4.46 g/m*3 -0.6 C 1.6 km/h
50 14-01-2022 04:05:00 -0.6 C 4.46 g/m*3 -0.6 C 0 km/h
Sensor: Nr:Datum:Temp:Abs-Feuchte:Windchill:Wind:
Aussen-T/F 51 14-01-2022 04:10:00 -0.6 C 4.46 g/m*3 -0.6 C 0 km/h
52 14-01-2022 04:15:00 -0.6 C 4.46 g/m*3 -0.6 C 0 km/h
53 14-01-2022 04:20:00 -0.6 C 4.46 g/m*3 -0.6 C 0 km/h
54 14-01-2022 04:25:00 -0.6 C 4.51 g/m*3 -0.6 C 1.6 km/h
55 14-01-2022 04:30:00 -0.6 C 4.51 g/m*3 -0.6 C 0 km/h
56 14-01-2022 04:35:00 -0.6 C 4.51 g/m*3 -0.6 C 0 km/h
57 14-01-2022 04:40:00 -0.6 C 4.51 g/m*3 -0.6 C 0 km/h
58 14-01-2022 04:45:00 -0.6 C 4.51 g/m*3 -0.6 C 0 km/h
59 14-01-2022 04:50:00 -0.6 C 4.51 g/m*3 -0.6 C 0 km/h
60 14-01-2022 04:55:00 -0.6 C 4.51 g/m*3 -0.6 C 0 km/h
61 14-01-2022 05:00:00 -0.6 C 4.51 g/m*3 -0.6 C 0 km/h
62 14-01-2022 05:05:00 -0.6 C 4.51 g/m*3 -0.6 C 0 km/h
63 14-01-2022 05:10:00 -0.6 C 4.51 g/m*3 -0.6 C 4.8 km/h
64 14-01-2022 05:15:00 -0.7 C 4.48 g/m*3 -0.7 C 4.8 km/h
65 14-01-2022 05:20:00 -0.7 C 4.48 g/m*3 -0.7 C 0 km/h
66 14-01-2022 05:25:00 -0.7 C 4.43 g/m*3 -0.7 C 0 km/h
67 14-01-2022 05:30:00 -0.7 C 4.48 g/m*3 -0.7 C 0 km/h
68 14-01-2022 05:35:00 -0.7 C 4.43 g/m*3 -0.7 C 0 km/h
69 14-01-2022 05:40:00 -0.7 C 4.43 g/m*3 -0.7 C 0 km/h
70 14-01-2022 05:45:00 -0.7 C 4.43 g/m*3 -0.7 C 0 km/h
71 14-01-2022 05:50:00 -0.7 C 4.43 g/m*3 -0.7 C 0 km/h
72 14-01-2022 05:55:00 -0.8 C 4.4 g/m*3 -0.8 C 0 km/h
73 14-01-2022 06:00:00 -0.8 C 4.4 g/m*3 -0.8 C 0 km/h
74 14-01-2022 06:05:00 -0.8 C 4.4 g/m*3 -0.8 C 0 km/h
75 14-01-2022 06:10:00 -0.8 C 4.4 g/m*3 -0.8 C 3.2 km/h
Sensor: Nr:Datum:Temp:Abs-Feuchte:Windchill:Wind:
Aussen-T/F 76 14-01-2022 06:15:00 -0.8 C 4.4 g/m*3 -0.8 C 1.6 km/h
77 14-01-2022 06:20:00 -0.8 C 4.45 g/m*3 -0.8 C 1.6 km/h
78 14-01-2022 06:25:00 -0.8 C 4.45 g/m*3 -0.8 C 1.6 km/h
79 14-01-2022 06:30:00 -0.8 C 4.45 g/m*3 -0.8 C 3.2 km/h
80 14-01-2022 06:35:00 -0.8 C 4.45 g/m*3 -0.8 C 0 km/h
81 14-01-2022 06:40:00 -0.9 C 4.42 g/m*3 -0.9 C 0 km/h
82 14-01-2022 06:45:00 -0.9 C 4.42 g/m*3 -0.9 C 0 km/h
83 14-01-2022 06:50:00 -0.9 C 4.42 g/m*3 -0.9 C 0 km/h
84 14-01-2022 06:55:00 -0.9 C 4.42 g/m*3 -0.9 C 0 km/h
85 14-01-2022 07:00:00 -0.9 C 4.42 g/m*3 -0.9 C 0 km/h
86 14-01-2022 07:05:00 -0.9 C 4.42 g/m*3 -0.9 C 0 km/h
87 14-01-2022 07:10:00 -0.9 C 4.42 g/m*3 -0.9 C 0 km/h
88 14-01-2022 07:15:00 -0.9 C 4.42 g/m*3 -0.9 C 0 km/h
89 14-01-2022 07:20:00 -1 C 4.38 g/m*3 -1 C 0 km/h
90 14-01-2022 07:25:00 -1 C 4.38 g/m*3 -1 C 0 km/h
91 14-01-2022 07:30:00 -1 C 4.38 g/m*3 -1 C 0 km/h
92 14-01-2022 07:35:00 -1 C 4.38 g/m*3 -1 C 0 km/h
93 14-01-2022 07:40:00 -0.9 C 4.42 g/m*3 -0.9 C 0 km/h
94 14-01-2022 07:45:00 -0.9 C 4.42 g/m*3 -0.9 C 0 km/h
95 14-01-2022 07:50:00 -0.9 C 4.42 g/m*3 -0.9 C 0 km/h
96 14-01-2022 07:55:00 -0.9 C 4.42 g/m*3 -0.9 C 0 km/h
97 14-01-2022 08:00:00 -1 C 4.38 g/m*3 -1 C 0 km/h
98 14-01-2022 08:05:00 -1.1 C 4.35 g/m*3 -1.1 C 0 km/h
99 14-01-2022 08:10:00 -1.1 C 4.35 g/m*3 -1.1 C 0 km/h
100 14-01-2022 08:15:00 -1.1 C 4.35 g/m*3 -1.1 C 0 km/h
Sensor: Nr:Datum:Temp:Abs-Feuchte:Windchill:Wind:
Aussen-T/F 101 14-01-2022 08:20:00 -1.1 C 4.35 g/m*3 -1.1 C 0 km/h
102 14-01-2022 08:25:00 -1.1 C 4.35 g/m*3 -1.1 C 0 km/h
103 14-01-2022 08:30:00 -1 C 4.38 g/m*3 -1 C 4.8 km/h
104 14-01-2022 08:35:00 -1 C 4.38 g/m*3 -1 C 3.2 km/h
105 14-01-2022 08:40:00 -1.1 C 4.35 g/m*3 -1.1 C 0 km/h
106 14-01-2022 08:45:00 -1.1 C 4.35 g/m*3 -1.1 C 0 km/h
107 14-01-2022 08:50:00 -1.1 C 4.35 g/m*3 -1.1 C 0 km/h
108 14-01-2022 08:55:00 -1.1 C 4.35 g/m*3 -1.1 C 1.6 km/h
109 14-01-2022 09:00:00 -1 C 4.38 g/m*3 -1 C 0 km/h
110 14-01-2022 09:05:00 -1 C 4.38 g/m*3 -1 C 0 km/h
111 14-01-2022 09:10:00 -1.1 C 4.35 g/m*3 -1.1 C 1.6 km/h
112 14-01-2022 09:15:00 -1.1 C 4.35 g/m*3 -1.1 C 0 km/h
113 14-01-2022 09:20:00 -1.1 C 4.35 g/m*3 -1.1 C 0 km/h
114 14-01-2022 09:25:00 -1.1 C 4.35 g/m*3 -1.1 C 0 km/h
115 14-01-2022 09:30:00 -1.1 C 4.35 g/m*3 -1.1 C 0 km/h
116 14-01-2022 09:35:00 -1.1 C 4.35 g/m*3 -1.1 C 0 km/h
117 14-01-2022 09:40:00 -1 C 4.38 g/m*3 -1 C 0 km/h
118 14-01-2022 09:45:00 -1 C 4.38 g/m*3 -1 C 0 km/h
119 14-01-2022 09:50:00 -1 C 4.38 g/m*3 -1 C 0 km/h
120 14-01-2022 09:55:00 -1 C 4.38 g/m*3 -1 C 0 km/h
121 14-01-2022 10:00:00 -0.9 C 4.42 g/m*3 -0.9 C 0 km/h
122 14-01-2022 10:05:00 -0.9 C 4.42 g/m*3 -0.9 C 0 km/h
123 14-01-2022 10:10:00 -0.9 C 4.42 g/m*3 -0.9 C 0 km/h
124 14-01-2022 10:15:00 -0.8 C 4.45 g/m*3 -0.8 C 0 km/h
125 14-01-2022 10:20:00 -0.8 C 4.45 g/m*3 -0.8 C 0 km/h
Sensor: Nr:Datum:Temp:Abs-Feuchte:Windchill:Wind:
Aussen-T/F 126 14-01-2022 10:25:00 -0.8 C 4.45 g/m*3 -0.8 C 0 km/h
127 14-01-2022 10:30:00 -0.8 C 4.45 g/m*3 -0.8 C 0 km/h
128 14-01-2022 10:35:00 -0.8 C 4.45 g/m*3 -0.8 C 0 km/h
129 14-01-2022 10:40:00 -0.8 C 4.45 g/m*3 -0.8 C 0 km/h
130 14-01-2022 10:45:00 -0.8 C 4.45 g/m*3 -0.8 C 0 km/h
131 14-01-2022 10:50:00 -0.7 C 4.48 g/m*3 -0.7 C 0 km/h
132 14-01-2022 10:55:00 -0.7 C 4.48 g/m*3 -0.7 C 0 km/h
133 14-01-2022 11:00:00 -0.8 C 4.45 g/m*3 -0.8 C 0 km/h
134 14-01-2022 11:05:00 -0.7 C 4.48 g/m*3 -0.7 C 0 km/h
135 14-01-2022 11:10:00 -0.7 C 4.48 g/m*3 -0.7 C 0 km/h
136 14-01-2022 11:15:00 -0.7 C 4.48 g/m*3 -0.7 C 0 km/h
137 14-01-2022 11:20:00 -0.6 C 4.51 g/m*3 -0.6 C 0 km/h
138 14-01-2022 11:25:00 -0.5 C 4.54 g/m*3 -0.5 C 0 km/h
139 14-01-2022 11:30:00 -0.4 C 4.57 g/m*3 -0.4 C 0 km/h
140 14-01-2022 11:35:00 -0.4 C 4.57 g/m*3 -0.4 C 0 km/h
141 14-01-2022 11:40:00 -0.3 C 4.6 g/m*3 -0.3 C 0 km/h
142 14-01-2022 11:45:00 -0.2 C 4.64 g/m*3 -0.2 C 0 km/h
143 14-01-2022 11:50:00 -0.1 C 4.67 g/m*3 -0.1 C 0 km/h
144 14-01-2022 11:55:00 -0.1 C 4.67 g/m*3 -0.1 C 3.2 km/h
145 14-01-2022 12:00:00 0 C 4.7 g/m*3 0 C 3.2 km/h
146 14-01-2022 12:05:00 0 C 4.7 g/m*3 0 C 3.2 km/h
147 14-01-2022 12:10:00 0.1 C 4.73 g/m*3 0.1 C 0 km/h
148 14-01-2022 12:15:00 0.1 C 4.73 g/m*3 0.1 C 3.2 km/h
149 14-01-2022 12:20:00 0.1 C 4.73 g/m*3 0.1 C 4.8 km/h
150 14-01-2022 12:25:00 0.1 C 4.73 g/m*3 -2.07 C 6.4 km/h
Sensor: Nr:Datum:Temp:Abs-Feuchte:Windchill:Wind:
Aussen-T/F 151 14-01-2022 12:30:00 0.2 C 4.77 g/m*3 0.2 C 3.2 km/h
152 14-01-2022 12:35:00 0.2 C 4.77 g/m*3 0.2 C 1.6 km/h
153 14-01-2022 12:40:00 0.2 C 4.77 g/m*3 0.2 C 1.6 km/h
154 14-01-2022 12:45:00 0.3 C 4.8 g/m*3 0.3 C 3.2 km/h
155 14-01-2022 12:50:00 0.3 C 4.8 g/m*3 0.3 C 3.2 km/h
156 14-01-2022 12:55:00 0.4 C 4.83 g/m*3 0.4 C 0 km/h
157 14-01-2022 13:00:00 0.4 C 4.83 g/m*3 0.4 C 0 km/h
158 14-01-2022 13:05:00 0.4 C 4.83 g/m*3 0.4 C 0 km/h
159 14-01-2022 13:10:00 0.5 C 4.86 g/m*3 0.5 C 1.6 km/h
160 14-01-2022 13:15:00 0.6 C 4.9 g/m*3 0.6 C 0 km/h
161 14-01-2022 13:20:00 0.5 C 4.86 g/m*3 0.5 C 4.8 km/h
162 14-01-2022 13:25:00 0.5 C 4.86 g/m*3 0.5 C 3.2 km/h
163 14-01-2022 13:30:00 0.6 C 4.9 g/m*3 0.6 C 4.8 km/h
164 14-01-2022 13:35:00 0.7 C 4.93 g/m*3 -1.37 C 6.4 km/h
165 14-01-2022 13:40:00 0.6 C 4.9 g/m*3 0.6 C 4.8 km/h
166 14-01-2022 13:45:00 0.6 C 4.9 g/m*3 0.6 C 3.2 km/h
167 14-01-2022 13:50:00 0.7 C 4.93 g/m*3 0.7 C 1.6 km/h
168 14-01-2022 13:55:00 0.7 C 4.93 g/m*3 0.7 C 4.8 km/h
169 14-01-2022 14:00:00 0.8 C 4.97 g/m*3 0.8 C 3.2 km/h
170 14-01-2022 14:05:00 0.8 C 4.97 g/m*3 0.8 C 3.2 km/h
171 14-01-2022 14:10:00 0.8 C 4.97 g/m*3 0.8 C 0 km/h
172 14-01-2022 14:15:00 0.8 C 4.97 g/m*3 0.8 C 3.2 km/h
173 14-01-2022 14:20:00 0.8 C 4.97 g/m*3 -1.26 C 6.4 km/h
174 14-01-2022 14:25:00 0.8 C 4.97 g/m*3 0.8 C 4.8 km/h
175 14-01-2022 14:30:00 0.8 C 4.97 g/m*3 0.8 C 1.6 km/h
Sensor: Nr:Datum:Temp:Abs-Feuchte:Windchill:Wind:
Aussen-T/F 176 14-01-2022 14:35:00 0.9 C 5 g/m*3 0.9 C 1.6 km/h
177 14-01-2022 14:40:00 0.9 C 5 g/m*3 0.9 C 3.2 km/h
178 14-01-2022 14:45:00 0.9 C 5 g/m*3 0.9 C 3.2 km/h
179 14-01-2022 14:50:00 0.9 C 5 g/m*3 0.9 C 4.8 km/h
180 14-01-2022 14:55:00 0.9 C 5 g/m*3 0.9 C 3.2 km/h
181 14-01-2022 15:00:00 0.9 C 5 g/m*3 0.9 C 1.6 km/h
182 14-01-2022 15:05:00 0.9 C 5 g/m*3 0.9 C 0 km/h
183 14-01-2022 15:10:00 0.9 C 5 g/m*3 0.9 C 1.6 km/h
184 14-01-2022 15:15:00 0.9 C 5 g/m*3 0.9 C 3.2 km/h
185 14-01-2022 15:20:00 0.9 C 5 g/m*3 0.9 C 4.8 km/h
186 14-01-2022 15:25:00 0.9 C 5 g/m*3 0.9 C 3.2 km/h
187 14-01-2022 15:30:00 0.9 C 5 g/m*3 0.9 C 4.8 km/h
188 14-01-2022 15:35:00 0.9 C 5 g/m*3 0.9 C 1.6 km/h
189 14-01-2022 15:40:00 0.9 C 5 g/m*3 0.9 C 4.8 km/h
190 14-01-2022 15:45:00 0.9 C 5 g/m*3 0.9 C 1.6 km/h
191 14-01-2022 15:50:00 0.9 C 5 g/m*3 0.9 C 4.8 km/h
192 14-01-2022 15:55:00 0.8 C 4.97 g/m*3 0.8 C 4.8 km/h
193 14-01-2022 16:00:00 0.8 C 4.97 g/m*3 0.8 C 1.6 km/h
194 14-01-2022 16:05:00 0.7 C 4.93 g/m*3 0.7 C 3.2 km/h
195 14-01-2022 16:10:00 0.7 C 4.93 g/m*3 0.7 C 1.6 km/h
196 14-01-2022 16:15:00 0.7 C 4.93 g/m*3 0.7 C 1.6 km/h
197 14-01-2022 16:20:00 0.7 C 4.93 g/m*3 0.7 C 1.6 km/h
198 14-01-2022 16:25:00 0.7 C 4.93 g/m*3 0.7 C 0 km/h
199 14-01-2022 16:30:00 0.7 C 4.93 g/m*3 0.7 C 1.6 km/h
200 14-01-2022 16:35:00 0.6 C 4.9 g/m*3 0.6 C 0 km/h
Sensor: Nr:Datum:Temp:Abs-Feuchte:Windchill:Wind:
Aussen-T/F 201 14-01-2022 16:40:00 0.6 C 4.9 g/m*3 0.6 C 3.2 km/h
202 14-01-2022 16:45:00 0.6 C 4.9 g/m*3 0.6 C 0 km/h
203 14-01-2022 16:50:00 0.5 C 4.86 g/m*3 0.5 C 1.6 km/h
204 14-01-2022 16:55:00 0.4 C 4.83 g/m*3 0.4 C 0 km/h
205 14-01-2022 17:00:00 0.4 C 4.83 g/m*3 0.4 C 0 km/h
206 14-01-2022 17:05:00 0.3 C 4.8 g/m*3 0.3 C 0 km/h
207 14-01-2022 17:10:00 0.3 C 4.8 g/m*3 0.3 C 0 km/h
208 14-01-2022 17:15:00 0.2 C 4.77 g/m*3 0.2 C 0 km/h
209 14-01-2022 17:20:00 0.2 C 4.77 g/m*3 0.2 C 0 km/h
210 14-01-2022 17:25:00 0.2 C 4.77 g/m*3 0.2 C 0 km/h
211 14-01-2022 17:30:00 0.1 C 4.73 g/m*3 0.1 C 0 km/h
212 14-01-2022 17:35:00 0.1 C 4.73 g/m*3 0.1 C 0 km/h
213 14-01-2022 17:40:00 0.1 C 4.73 g/m*3 0.1 C 0 km/h
214 14-01-2022 17:45:00 0.1 C 4.73 g/m*3 0.1 C 0 km/h
215 14-01-2022 17:50:00 0.1 C 4.73 g/m*3 0.1 C 0 km/h
216 14-01-2022 17:55:00 0.1 C 4.73 g/m*3 0.1 C 0 km/h
217 14-01-2022 18:00:00 0.2 C 4.77 g/m*3 0.2 C 3.2 km/h
218 14-01-2022 18:05:00 0.2 C 4.77 g/m*3 0.2 C 3.2 km/h
219 14-01-2022 18:10:00 0.3 C 4.8 g/m*3 0.3 C 4.8 km/h
220 14-01-2022 18:15:00 0.4 C 4.83 g/m*3 -1.72 C 6.4 km/h
221 14-01-2022 18:20:00 0.5 C 4.86 g/m*3 0.5 C 1.6 km/h
222 14-01-2022 18:25:00 0.6 C 4.9 g/m*3 0.6 C 3.2 km/h
223 14-01-2022 18:30:00 0.6 C 4.9 g/m*3 0.6 C 3.2 km/h
224 14-01-2022 18:35:00 0.6 C 4.9 g/m*3 0.6 C 0 km/h
225 14-01-2022 18:40:00 0.6 C 4.9 g/m*3 0.6 C 4.8 km/h
Sensor: Nr:Datum:Temp:Abs-Feuchte:Windchill:Wind:
Aussen-T/F 226 14-01-2022 18:45:00 0.6 C 4.9 g/m*3 0.6 C 0 km/h
227 14-01-2022 18:50:00 0.6 C 4.9 g/m*3 0.6 C 4.8 km/h
228 14-01-2022 18:55:00 0.7 C 4.93 g/m*3 0.7 C 1.6 km/h
229 14-01-2022 19:00:00 0.7 C 4.93 g/m*3 0.7 C 1.6 km/h
230 14-01-2022 19:05:00 0.7 C 4.93 g/m*3 0.7 C 0 km/h
231 14-01-2022 19:10:00 0.8 C 4.97 g/m*3 0.8 C 0 km/h
232 14-01-2022 19:15:00 0.8 C 5.02 g/m*3 0.8 C 1.6 km/h
233 14-01-2022 19:20:00 0.9 C 5.05 g/m*3 0.9 C 0 km/h
234 14-01-2022 19:25:00 1 C 5.09 g/m*3 1 C 3.2 km/h
235 14-01-2022 19:30:00 1.1 C 5.07 g/m*3 1.1 C 0 km/h
236 14-01-2022 19:35:00 1.1 C 5.07 g/m*3 1.1 C 1.6 km/h
237 14-01-2022 19:40:00 1.2 C 5.16 g/m*3 1.2 C 1.6 km/h
238 14-01-2022 19:45:00 1.2 C 5.16 g/m*3 1.2 C 1.6 km/h
239 14-01-2022 19:50:00 1.3 C 5.19 g/m*3 -0.68 C 6.4 km/h
240 14-01-2022 19:55:00 1.3 C 5.19 g/m*3 1.3 C 1.6 km/h
241 14-01-2022 20:00:00 1.3 C 5.19 g/m*3 1.3 C 3.2 km/h
242 14-01-2022 20:05:00 1.4 C 5.17 g/m*3 1.4 C 0 km/h
243 14-01-2022 20:10:00 1.4 C 5.17 g/m*3 1.4 C 0 km/h
244 14-01-2022 20:15:00 1.5 C 5.21 g/m*3 1.5 C 0 km/h
245 14-01-2022 20:20:00 1.5 C 5.26 g/m*3 1.5 C 0 km/h
246 14-01-2022 20:25:00 1.6 C 5.3 g/m*3 1.6 C 0 km/h
247 14-01-2022 20:30:00 1.6 C 5.3 g/m*3 1.6 C 0 km/h
248 14-01-2022 20:35:00 1.6 C 5.3 g/m*3 1.6 C 0 km/h
249 14-01-2022 20:40:00 1.6 C 5.3 g/m*3 1.6 C 0 km/h
250 14-01-2022 20:45:00 1.6 C 5.3 g/m*3 1.6 C 0 km/h
Sensor: Nr:Datum:Temp:Abs-Feuchte:Windchill:Wind:
Aussen-T/F 251 14-01-2022 20:50:00 1.7 C 5.34 g/m*3 1.7 C 0 km/h
252 14-01-2022 20:55:00 1.7 C 5.34 g/m*3 1.7 C 0 km/h
253 14-01-2022 21:00:00 1.7 C 5.34 g/m*3 1.7 C 0 km/h
254 14-01-2022 21:05:00 1.7 C 5.28 g/m*3 1.7 C 0 km/h
255 14-01-2022 21:10:00 1.7 C 5.28 g/m*3 1.7 C 0 km/h
256 14-01-2022 21:15:00 1.7 C 5.28 g/m*3 1.7 C 0 km/h
257 14-01-2022 21:20:00 1.8 C 5.37 g/m*3 1.8 C 0 km/h
258 14-01-2022 21:25:00 1.8 C 5.32 g/m*3 1.8 C 0 km/h
259 14-01-2022 21:30:00 1.8 C 5.32 g/m*3 1.8 C 0 km/h
260 14-01-2022 21:35:00 1.8 C 5.32 g/m*3 1.8 C 0 km/h
261 14-01-2022 21:40:00 1.8 C 5.32 g/m*3 1.8 C 0 km/h
262 14-01-2022 21:45:00 1.8 C 5.32 g/m*3 1.8 C 0 km/h
263 14-01-2022 21:50:00 1.8 C 5.32 g/m*3 1.8 C 0 km/h
264 14-01-2022 21:55:00 1.8 C 5.32 g/m*3 1.8 C 0 km/h
265 14-01-2022 22:00:00 1.8 C 5.32 g/m*3 1.8 C 0 km/h
266 14-01-2022 22:05:00 1.8 C 5.32 g/m*3 1.8 C 0 km/h
267 14-01-2022 22:10:00 1.8 C 5.37 g/m*3 1.8 C 0 km/h
268 14-01-2022 22:15:00 1.8 C 5.37 g/m*3 1.8 C 0 km/h
269 14-01-2022 22:20:00 1.9 C 5.41 g/m*3 1.9 C 0 km/h
270 14-01-2022 22:25:00 1.9 C 5.41 g/m*3 1.9 C 0 km/h
271 14-01-2022 22:30:00 1.9 C 5.41 g/m*3 1.9 C 0 km/h
272 14-01-2022 22:35:00 1.9 C 5.41 g/m*3 1.9 C 0 km/h
273 14-01-2022 22:40:00 2 C 5.45 g/m*3 2 C 0 km/h
274 14-01-2022 22:45:00 2 C 5.45 g/m*3 2 C 0 km/h
275 14-01-2022 22:50:00 2 C 5.45 g/m*3 2 C 0 km/h
Sensor: Nr:Datum:Temp:Abs-Feuchte:Windchill:Wind:
Aussen-T/F 276 14-01-2022 22:55:00 2 C 5.45 g/m*3 2 C 0 km/h
277 14-01-2022 23:00:00 2.1 C 5.48 g/m*3 2.1 C 0 km/h
278 14-01-2022 23:05:00 2.1 C 5.48 g/m*3 2.1 C 0 km/h
279 14-01-2022 23:10:00 2.1 C 5.48 g/m*3 2.1 C 0 km/h
280 14-01-2022 23:15:00 2.1 C 5.48 g/m*3 2.1 C 0 km/h
281 14-01-2022 23:20:00 2.1 C 5.48 g/m*3 2.1 C 0 km/h
282 14-01-2022 23:25:00 2.1 C 5.48 g/m*3 2.1 C 0 km/h
283 14-01-2022 23:30:00 2.1 C 5.48 g/m*3 2.1 C 0 km/h
284 14-01-2022 23:35:00 2.1 C 5.48 g/m*3 2.1 C 0 km/h
285 14-01-2022 23:40:00 2.1 C 5.48 g/m*3 2.1 C 0 km/h
286 14-01-2022 23:45:00 2.1 C 5.48 g/m*3 2.1 C 0 km/h
287 14-01-2022 23:50:00 2.1 C 5.43 g/m*3 2.1 C 0 km/h
288 14-01-2022 23:55:00 2.1 C 5.43 g/m*3 2.1 C 0 km/h

Legende:
   Min
   Max


Maximal/Minimal-Werte vom 14.01.2022 - 14.01.2022

Sensor Min Max Avg
Temp
(Aussen-T/F)
-1.1 °C
14-01-2022  08:05:00
2.1 °C
14-01-2022  23:00:00
0.14 °C
Abs-Feuchte
(Aussen-T/F)
4.35 g/m*3
14-01-2022  08:05:00
5.48 g/m*3
14-01-2022  23:00:00
4.74 g/m*3
Windchill
(Aussen-T/F)
-2.07 C
14-01-2022  12:25:00
2.1 C
14-01-2022  23:00:00
0.1 C

Die Daten stammen von einer Davis Vantage Pro 2 Wetter-Station und werden unter Linux mit der Software wview2wettercgi und aufbereitet. Alle Angaben erfolgen ohne Gewähr für ihre Vollständigkeit oder Richtigkeit.
Kontakt: Rainer Krienke krienke@uni-koblenz.de . Meine Webseiten an der Uni Koblenz oder privat.
Version: $Revision: 0.78 $